Time,TemperatureF,DewpointF,PressureIn,WindDirection,WindDirectionDegrees,WindSpeedMPH,WindSpeedGustMPH,Humidity,HourlyPrecipIn,Conditions,Clouds,dailyrainin,SoftwareType,DateUTC
2013-04-27 00:00:00,42.4,26.5,29.35,NNE,22,0.0,0.0,53,0.00,,,0.00,WUHU216WMR100,2013-04-27 04:00:00,
2013-04-27 00:01:00,42.4,26.5,29.35,NNE,22,0.0,0.0,53,0.00,,,0.00,WUHU216WMR100,2013-04-27 04:01:00,
2013-04-27 00:06:00,42.1,25.7,29.35,NNE,22,0.0,0.0,52,0.00,,,0.00,WUHU216WMR100,2013-04-27 04:06:00,
2013-04-27 00:11:00,42.1,26.2,29.35,NNE,22,0.0,0.0,53,0.00,,,0.00,WUHU216WMR100,2013-04-27 04:11:00,
2013-04-27 00:16:00,41.9,26.0,29.35,NNE,22,0.0,0.0,53,0.00,,,0.00,WUHU216WMR100,2013-04-27 04:16:00,
2013-04-27 00:21:00,41.7,25.8,29.35,NNE,22,0.0,0.0,53,0.00,,,0.00,WUHU216WMR100,2013-04-27 04:21:00,
2013-04-27 00:26:00,41.4,26.0,29.35,NNE,22,0.0,0.0,54,0.00,,,0.00,WUHU216WMR100,2013-04-27 04:26:00,
2013-04-27 00:31:00,41.2,26.3,29.35,NNE,22,0.0,0.0,55,0.00,,,0.00,WUHU216WMR100,2013-04-27 04:31:00,
2013-04-27 00:37:00,41.0,26.1,29.38,NNE,22,0.0,0.0,55,0.00,,,0.00,WUHU216WMR100,2013-04-27 04:37:00,
2013-04-27 00:42:00,41.0,26.1,29.38,NNE,22,0.0,0.0,55,0.00,,,0.00,WUHU216WMR100,2013-04-27 04:42:00,
2013-04-27 00:47:00,40.6,26.6,29.35,NNE,22,0.0,0.0,57,0.00,,,0.00,WUHU216WMR100,2013-04-27 04:47:00,
2013-04-27 00:52:00,40.6,26.6,29.35,NNE,22,0.0,0.0,57,0.00,,,0.00,WUHU216WMR100,2013-04-27 04:52:00,
2013-04-27 00:57:00,40.5,27.3,29.35,NNE,22,0.0,0.0,59,0.00,,,0.00,WUHU216WMR100,2013-04-27 04:57:00,
2013-04-27 01:02:00,40.1,27.0,29.35,NNE,22,0.0,0.0,59,0.00,,,0.00,WUHU216WMR100,2013-04-27 05:02:00,
2013-04-27 01:07:00,39.9,27.2,29.35,NNE,22,0.0,0.0,60,0.00,,,0.00,WUHU216WMR100,2013-04-27 05:07:00,
2013-04-27 01:12:00,39.7,27.0,29.35,NNE,22,0.0,0.0,60,0.00,,,0.00,WUHU216WMR100,2013-04-27 05:12:00,
2013-04-27 01:17:00,39.7,27.4,29.35,NNE,22,0.0,0.0,61,0.00,,,0.00,WUHU216WMR100,2013-04-27 05:17:00,
2013-04-27 01:22:00,39.4,27.5,29.35,NNE,22,0.0,0.0,62,0.00,,,0.00,WUHU216WMR100,2013-04-27 05:22:00,
2013-04-27 01:27:00,39.4,27.5,29.35,NNE,22,0.0,0.0,62,0.00,,,0.00,WUHU216WMR100,2013-04-27 05:27:00,
2013-04-27 01:32:00,39.4,27.5,29.35,NNE,22,0.0,0.0,62,0.00,,,0.00,WUHU216WMR100,2013-04-27 05:32:00,
2013-04-27 01:37:00,39.2,28.1,29.35,NNE,22,0.0,0.0,64,0.00,,,0.00,WUHU216WMR100,2013-04-27 05:37:00,
2013-04-27 01:42:00,39.0,27.5,29.35,NNE,22,0.0,0.0,63,0.00,,,0.00,WUHU216WMR100,2013-04-27 05:42:00,
2013-04-27 01:47:00,39.0,28.3,29.35,NNE,22,0.0,0.0,65,0.00,,,0.00,WUHU216WMR100,2013-04-27 05:47:00,
2013-04-27 01:52:00,38.7,28.0,29.35,NNE,22,0.0,0.0,65,0.00,,,0.00,WUHU216WMR100,2013-04-27 05:52:00,
2013-04-27 01:57:00,38.5,27.8,29.35,NNE,22,0.0,0.0,65,0.00,,,0.00,WUHU216WMR100,2013-04-27 05:57:00,
2013-04-27 02:02:00,38.7,28.4,29.35,NNE,22,0.0,0.0,66,0.00,,,0.00,WUHU216WMR100,2013-04-27 06:02:00,
2013-04-27 02:07:00,38.7,28.0,29.35,NNE,22,0.0,0.0,65,0.00,,,0.00,WUHU216WMR100,2013-04-27 06:07:00,
2013-04-27 02:12:00,38.5,27.8,29.35,NNE,22,0.0,0.0,65,0.00,,,0.00,WUHU216WMR100,2013-04-27 06:12:00,
2013-04-27 02:17:00,38.3,28.4,29.35,NNE,22,0.0,0.0,67,0.00,,,0.00,WUHU216WMR100,2013-04-27 06:17:00,
2013-04-27 02:22:00,38.1,27.8,29.35,NNE,22,0.0,0.0,66,0.00,,,0.00,WUHU216WMR100,2013-04-27 06:22:00,
2013-04-27 02:27:00,37.9,27.6,29.35,NNE,22,0.0,0.0,66,0.00,,,0.00,WUHU216WMR100,2013-04-27 06:27:00,
2013-04-27 02:32:00,38.1,28.2,29.35,NNE,22,0.0,0.0,67,0.00,,,0.00,WUHU216WMR100,2013-04-27 06:32:00,
2013-04-27 02:37:00,37.9,28.0,29.35,NNE,22,0.0,0.0,67,0.00,,,0.00,WUHU216WMR100,2013-04-27 06:37:00,
2013-04-27 02:42:00,37.9,28.4,29.35,NNE,22,0.0,0.0,68,0.00,,,0.00,WUHU216WMR100,2013-04-27 06:42:00,
2013-04-27 02:47:00,37.6,27.7,29.35,NNE,22,0.0,0.0,67,0.00,,,0.00,WUHU216WMR100,2013-04-27 06:47:00,
2013-04-27 02:52:00,37.4,27.9,29.35,NNE,22,0.0,0.0,68,0.00,,,0.00,WUHU216WMR100,2013-04-27 06:52:00,
2013-04-27 02:57:00,37.6,28.4,29.35,NNE,22,0.0,0.0,69,0.00,,,0.00,WUHU216WMR100,2013-04-27 06:57:00,
2013-04-27 03:02:00,37.2,28.0,29.35,NNE,22,0.0,0.0,69,0.00,,,0.00,WUHU216WMR100,2013-04-27 07:02:00,
2013-04-27 03:07:00,37.4,28.2,29.32,NNE,22,0.0,0.0,69,0.00,,,0.00,WUHU216WMR100,2013-04-27 07:07:00,
2013-04-27 03:12:00,37.0,28.2,29.32,NNE,22,0.0,0.0,70,0.00,,,0.00,WUHU216WMR100,2013-04-27 07:12:00,
2013-04-27 03:17:00,36.9,28.1,29.32,NNE,22,0.0,0.0,70,0.00,,,0.00,WUHU216WMR100,2013-04-27 07:17:00,
2013-04-27 03:23:00,36.7,28.2,29.32,NNE,22,0.0,0.0,71,0.00,,,0.00,WUHU216WMR100,2013-04-27 07:23:00,
2013-04-27 03:28:00,36.7,28.2,29.32,NNE,22,0.0,0.0,71,0.00,,,0.00,WUHU216WMR100,2013-04-27 07:28:00,
2013-04-27 03:33:00,36.5,28.1,29.32,NNE,22,0.0,0.0,71,0.00,,,0.00,WUHU216WMR100,2013-04-27 07:33:00,
2013-04-27 03:38:00,36.7,28.6,29.32,NNE,22,0.0,0.0,72,0.00,,,0.00,WUHU216WMR100,2013-04-27 07:38:00,
2013-04-27 03:43:00,36.5,28.7,29.32,NNE,22,0.0,0.0,73,0.00,,,0.00,WUHU216WMR100,2013-04-27 07:43:00,
2013-04-27 03:48:00,36.5,28.7,29.32,NNE,22,0.0,0.0,73,0.00,,,0.00,WUHU216WMR100,2013-04-27 07:48:00,
2013-04-27 03:53:00,36.1,28.0,29.32,NNE,22,0.0,0.0,72,0.00,,,0.00,WUHU216WMR100,2013-04-27 07:53:00,
2013-04-27 03:58:00,36.3,28.5,29.32,NNE,22,0.0,0.0,73,0.00,,,0.00,WUHU216WMR100,2013-04-27 07:58:00,
2013-04-27 04:03:00,36.1,28.3,29.32,NNE,22,0.0,0.0,73,0.00,,,0.00,WUHU216WMR100,2013-04-27 08:03:00,
2013-04-27 04:08:00,36.3,28.9,29.32,NNE,22,0.0,0.0,74,0.00,,,0.00,WUHU216WMR100,2013-04-27 08:08:00,
2013-04-27 04:13:00,36.1,28.7,29.32,NNE,22,0.0,0.0,74,0.00,,,0.00,WUHU216WMR100,2013-04-27 08:13:00,
2013-04-27 04:18:00,36.0,28.6,29.32,NNE,22,0.0,0.0,74,0.00,,,0.00,WUHU216WMR100,2013-04-27 08:18:00,
2013-04-27 04:23:00,35.8,28.4,29.32,NNE,22,0.0,0.0,74,0.00,,,0.00,WUHU216WMR100,2013-04-27 08:23:00,
2013-04-27 04:28:00,35.6,28.2,29.32,NNE,22,0.0,0.0,74,0.00,,,0.00,WUHU216WMR100,2013-04-27 08:28:00,
2013-04-27 04:33:00,35.6,28.2,29.32,NNE,22,0.0,0.0,74,0.00,,,0.00,WUHU216WMR100,2013-04-27 08:33:00,
2013-04-27 04:38:00,35.6,28.2,29.32,NNE,22,0.0,0.0,74,0.00,,,0.00,WUHU216WMR100,2013-04-27 08:38:00,
2013-04-27 04:43:00,35.4,28.3,29.32,NNE,22,0.0,0.0,75,0.00,,,0.00,WUHU216WMR100,2013-04-27 08:43:00,
2013-04-27 04:48:00,35.4,28.3,29.32,NNE,22,0.0,0.0,75,0.00,,,0.00,WUHU216WMR100,2013-04-27 08:48:00,
2013-04-27 04:53:00,35.6,28.5,29.32,NNE,22,0.0,0.0,75,0.00,,,0.00,WUHU216WMR100,2013-04-27 08:53:00,
2013-04-27 04:58:00,35.4,28.6,29.32,NNE,22,0.0,0.0,76,0.00,,,0.00,WUHU216WMR100,2013-04-27 08:58:00,
2013-04-27 05:03:00,35.6,28.8,29.32,NNE,22,0.0,0.0,76,0.00,,,0.00,WUHU216WMR100,2013-04-27 09:03:00,
2013-04-27 05:08:00,35.4,28.6,29.32,NNE,22,0.0,0.0,76,0.00,,,0.00,WUHU216WMR100,2013-04-27 09:08:00,
2013-04-27 05:13:00,35.1,28.3,29.32,NNE,22,0.0,0.0,76,0.00,,,0.00,WUHU216WMR100,2013-04-27 09:13:00,
2013-04-27 05:18:00,34.9,28.1,29.32,NNE,22,0.0,0.0,76,0.00,,,0.00,WUHU216WMR100,2013-04-27 09:18:00,
2013-04-27 05:23:00,34.9,28.5,29.32,NNE,22,0.0,0.0,77,0.00,,,0.00,WUHU216WMR100,2013-04-27 09:23:00,
2013-04-27 05:28:00,34.9,28.5,29.32,NNE,22,0.0,0.0,77,0.00,,,0.00,WUHU216WMR100,2013-04-27 09:28:00,
2013-04-27 05:33:00,34.7,28.3,29.32,NNE,22,0.0,0.0,77,0.00,,,0.00,WUHU216WMR100,2013-04-27 09:33:00,
2013-04-27 05:38:00,34.5,28.4,29.32,NNE,22,0.0,0.0,78,0.00,,,0.00,WUHU216WMR100,2013-04-27 09:38:00,
2013-04-27 05:43:00,34.3,27.9,29.32,NNE,22,0.0,0.0,77,0.00,,,0.00,WUHU216WMR100,2013-04-27 09:43:00,
2013-04-27 05:48:00,34.3,28.2,29.32,NNE,22,0.0,0.0,78,0.00,,,0.00,WUHU216WMR100,2013-04-27 09:48:00,
2013-04-27 05:53:00,34.3,28.2,29.32,NNE,22,0.0,0.0,78,0.00,,,0.00,WUHU216WMR100,2013-04-27 09:53:00,
2013-04-27 05:58:00,34.3,28.2,29.32,NNE,22,0.0,0.0,78,0.00,,,0.00,WUHU216WMR100,2013-04-27 09:58:00,
2013-04-27 06:03:00,34.3,28.2,29.32,NNE,22,0.0,0.0,78,0.00,,,0.00,WUHU216WMR100,2013-04-27 10:03:00,
2013-04-27 06:08:00,34.2,28.1,29.32,NNE,22,0.0,0.0,78,0.00,,,0.00,WUHU216WMR100,2013-04-27 10:08:00,
2013-04-27 06:13:00,34.2,28.1,29.32,NNE,22,0.0,0.0,78,0.00,,,0.00,WUHU216WMR100,2013-04-27 10:13:00,
2013-04-27 06:18:00,34.2,28.1,29.32,WNW,292,0.0,0.0,78,0.00,,,0.00,WUHU216WMR100,2013-04-27 10:18:00,
2013-04-27 06:23:00,34.0,27.9,29.32,NW,315,0.0,0.0,78,0.00,,,0.00,WUHU216WMR100,2013-04-27 10:23:00,
2013-04-27 06:28:00,34.0,27.9,29.32,NW,315,0.0,0.0,78,0.00,,,0.00,WUHU216WMR100,2013-04-27 10:28:00,
2013-04-27 06:33:00,34.0,28.2,29.32,NW,315,0.0,0.0,79,0.00,,,0.00,WUHU216WMR100,2013-04-27 10:33:00,
2013-04-27 06:38:00,34.0,28.2,29.32,NNW,337,0.0,0.0,79,0.00,,,0.00,WUHU216WMR100,2013-04-27 10:38:00,
2013-04-27 06:43:00,34.0,28.2,29.32,NNW,337,0.0,0.0,79,0.00,,,0.00,WUHU216WMR100,2013-04-27 10:43:00,
2013-04-27 06:48:00,34.0,28.2,29.32,NNW,337,0.0,0.0,79,0.00,,,0.00,WUHU216WMR100,2013-04-27 10:48:00,
2013-04-27 06:53:00,34.3,28.8,29.32,NNW,337,0.0,0.0,80,0.00,,,0.00,WUHU216WMR100,2013-04-27 10:53:00,
2013-04-27 06:58:00,34.3,28.8,29.32,NNW,337,0.0,0.0,80,0.00,,,0.00,WUHU216WMR100,2013-04-27 10:58:00,
2013-04-27 07:03:00,34.7,29.2,29.32,NNW,337,0.0,0.0,80,0.00,,,0.00,WUHU216WMR100,2013-04-27 11:03:00,
2013-04-27 07:08:00,34.9,29.7,29.32,NNW,337,0.0,0.0,81,0.00,,,0.00,WUHU216WMR100,2013-04-27 11:08:00,
2013-04-27 07:13:00,35.4,30.2,29.32,NNW,337,0.0,0.0,81,0.00,,,0.00,WUHU216WMR100,2013-04-27 11:13:00,
2013-04-27 07:18:00,36.1,31.1,29.32,NNW,337,0.0,0.0,82,0.00,,,0.00,WUHU216WMR100,2013-04-27 11:18:00,
2013-04-27 07:23:00,36.9,32.2,29.32,NNW,337,0.0,0.0,83,0.00,,,0.00,WUHU216WMR100,2013-04-27 11:23:00,
2013-04-27 07:28:00,38.1,33.4,29.32,NNW,337,0.0,0.0,83,0.00,,,0.00,WUHU216WMR100,2013-04-27 11:28:00,
2013-04-27 07:33:00,39.2,34.5,29.32,NNW,337,0.0,0.0,83,0.00,,,0.00,WUHU216WMR100,2013-04-27 11:33:00,
2013-04-27 07:38:00,40.5,36.3,29.32,NNW,337,0.0,0.0,85,0.00,,,0.00,WUHU216WMR100,2013-04-27 11:38:00,
2013-04-27 07:43:00,41.5,37.3,29.32,NNW,337,0.0,0.0,85,0.00,,,0.00,WUHU216WMR100,2013-04-27 11:43:00,
2013-04-27 07:48:00,42.6,38.1,29.32,NNW,337,0.0,0.0,84,0.00,,,0.00,WUHU216WMR100,2013-04-27 11:48:00,
2013-04-27 07:53:00,43.7,38.9,29.32,NNW,337,0.0,0.0,83,0.00,,,0.00,WUHU216WMR100,2013-04-27 11:53:00,
2013-04-27 07:58:00,44.8,39.3,29.32,NNW,337,0.0,0.0,81,0.00,,,0.00,WUHU216WMR100,2013-04-27 11:58:00,
2013-04-27 08:03:00,45.9,39.1,29.35,NNW,337,0.0,0.0,77,0.00,,,0.00,WUHU216WMR100,2013-04-27 12:03:00,
2013-04-27 08:08:00,46.6,38.5,29.35,NNW,337,0.0,0.0,73,0.00,,,0.00,WUHU216WMR100,2013-04-27 12:08:00,
2013-04-27 08:13:00,47.3,38.5,29.35,NNW,337,0.0,0.0,71,0.00,,,0.00,WUHU216WMR100,2013-04-27 12:13:00,
2013-04-27 08:18:00,48.0,37.3,29.32,NNW,337,0.0,0.0,66,0.00,,,0.00,WUHU216WMR100,2013-04-27 12:18:00,
2013-04-27 08:23:00,48.7,37.6,29.32,NNW,337,0.0,0.0,65,0.00,,,0.00,WUHU216WMR100,2013-04-27 12:23:00,
2013-04-27 08:28:00,49.8,38.2,29.32,NNW,337,0.0,0.0,64,0.00,,,0.00,WUHU216WMR100,2013-04-27 12:28:00,
2013-04-27 08:33:00,50.2,36.9,29.35,NNW,337,0.0,0.0,60,0.00,,,0.00,WUHU216WMR100,2013-04-27 12:33:00,
2013-04-27 08:38:00,50.2,34.7,29.35,NNW,337,0.0,0.0,55,0.00,,,0.00,WUHU216WMR100,2013-04-27 12:38:00,
2013-04-27 08:43:00,51.3,35.7,29.35,NNW,337,1.2,1.6,55,0.00,,,0.00,WUHU216WMR100,2013-04-27 12:43:00,
2013-04-27 08:48:00,52.3,35.2,29.35,NNW,337,1.0,2.0,52,0.00,,,0.00,WUHU216WMR100,2013-04-27 12:48:00,
2013-04-27 08:53:00,53.1,35.4,29.35,NNW,337,1.1,2.0,51,0.00,,,0.00,WUHU216WMR100,2013-04-27 12:53:00,
2013-04-27 08:58:00,54.1,35.3,29.35,NNW,337,0.9,2.5,49,0.00,,,0.00,WUHU216WMR100,2013-04-27 12:58:00,
2013-04-27 09:03:00,55.4,36.0,29.32,NNW,337,0.0,2.5,48,0.00,,,0.00,WUHU216WMR100,2013-04-27 13:03:00,
2013-04-27 09:08:00,56.1,36.1,29.32,NNW,337,0.0,1.6,47,0.00,,,0.00,WUHU216WMR100,2013-04-27 13:08:00,
2013-04-27 09:13:00,57.0,35.8,29.32,NNW,337,0.5,1.6,45,0.00,,,0.00,WUHU216WMR100,2013-04-27 13:13:00,
2013-04-27 09:18:00,58.1,36.8,29.32,NNW,337,1.1,2.5,45,0.00,,,0.00,WUHU216WMR100,2013-04-27 13:18:00,
2013-04-27 09:23:00,59.2,36.0,29.32,NNW,337,0.0,2.5,42,0.00,,,0.00,WUHU216WMR100,2013-04-27 13:23:00,
2013-04-27 09:28:00,60.1,34.2,29.32,NNW,337,0.0,2.0,38,0.00,,,0.00,WUHU216WMR100,2013-04-27 13:28:00,
2013-04-27 09:33:00,61.0,35.0,29.32,NNW,337,1.3,2.7,38,0.00,,,0.00,WUHU216WMR100,2013-04-27 13:33:00,
2013-04-27 09:38:00,61.9,35.1,29.32,WSW,247,2.0,2.7,37,0.00,,,0.00,WUHU216WMR100,2013-04-27 13:38:00,
2013-04-27 09:43:00,61.7,34.3,29.32,WSW,247,2.0,2.7,36,0.00,,,0.00,WUHU216WMR100,2013-04-27 13:43:00,
2013-04-27 09:48:00,62.4,34.2,29.32,WSW,247,1.1,2.7,35,0.00,,,0.00,WUHU216WMR100,2013-04-27 13:48:00,
2013-04-27 09:53:00,63.9,34.8,29.32,WSW,247,1.6,2.5,34,0.00,,,0.00,WUHU216WMR100,2013-04-27 13:53:00,
2013-04-27 09:58:00,65.3,35.2,29.32,WSW,247,2.1,2.9,33,0.00,,,0.00,WUHU216WMR100,2013-04-27 13:58:00,
2013-04-27 10:03:00,65.5,30.5,29.32,WSW,247,2.7,3.6,27,0.00,,,0.00,WUHU216WMR100,2013-04-27 14:03:00,
2013-04-27 10:08:00,65.7,29.7,29.32,WSW,247,1.9,3.8,26,0.00,,,0.00,WUHU216WMR100,2013-04-27 14:08:00,
2013-04-27 10:13:00,66.2,30.1,29.32,SSW,202,2.0,3.8,26,0.00,,,0.00,WUHU216WMR100,2013-04-27 14:13:00,
2013-04-27 10:18:00,66.7,30.6,29.32,SSW,202,1.1,3.6,26,0.00,,,0.00,WUHU216WMR100,2013-04-27 14:18:00,
2013-04-27 10:24:00,67.1,29.0,29.32,WSW,247,2.9,4.0,24,0.00,,,0.00,WUHU216WMR100,2013-04-27 14:24:00,
2013-04-27 10:29:00,66.7,28.6,29.32,SW,225,3.8,5.6,24,0.00,,,0.00,WUHU216WMR100,2013-04-27 14:29:00,
2013-04-27 10:34:00,67.6,28.4,29.29,SW,227,1.7,5.6,23,0.00,,,0.00,WUHU216WMR100,2013-04-27 14:34:00,
2013-04-27 10:39:00,68.2,28.9,29.29,West,270,3.4,4.0,23,0.00,,,0.00,WUHU216WMR100,2013-04-27 14:39:00,
2013-04-27 10:44:00,68.5,29.1,29.29,ESE,112,3.1,4.0,23,0.00,,,0.00,WUHU216WMR100,2013-04-27 14:44:00,
2013-04-27 10:49:00,68.9,29.5,29.29,SSW,202,1.4,3.8,23,0.00,,,0.00,WUHU216WMR100,2013-04-27 14:49:00,
2013-04-27 10:54:00,68.5,28.1,29.29,South,183,3.1,4.7,22,0.00,,,0.00,WUHU216WMR100,2013-04-27 14:54:00,
2013-04-27 10:59:00,69.6,29.0,29.29,West,270,2.7,4.7,22,0.00,,,0.00,WUHU216WMR100,2013-04-27 14:59:00,
2013-04-27 11:04:00,69.3,28.7,29.29,ESE,112,3.6,4.9,22,0.00,,,0.00,WUHU216WMR100,2013-04-27 15:04:00,
2013-04-27 11:09:00,69.6,29.0,29.29,ENE,67,2.9,5.4,22,0.00,,,0.00,WUHU216WMR100,2013-04-27 15:09:00,
2013-04-27 11:14:00,70.0,29.3,29.29,SE,125,3.1,5.8,22,0.00,,,0.00,WUHU216WMR100,2013-04-27 15:14:00,
2013-04-27 11:19:00,70.3,29.6,29.29,SSE,157,3.1,5.8,22,0.00,,,0.00,WUHU216WMR100,2013-04-27 15:19:00,
2013-04-27 11:24:00,71.1,30.2,29.29,SSE,148,1.8,4.0,22,0.00,,,0.00,WUHU216WMR100,2013-04-27 15:24:00,
2013-04-27 11:29:00,71.4,30.5,29.29,SSE,157,2.5,3.8,22,0.00,,,0.00,WUHU216WMR100,2013-04-27 15:29:00,
2013-04-27 11:34:00,72.0,27.4,29.29,SSW,202,2.9,4.9,19,0.00,,,0.00,WUHU216WMR100,2013-04-27 15:34:00,
2013-04-27 11:39:00,71.8,23.1,29.29,East,90,6.3,10.3,16,0.00,,,0.00,WUHU216WMR100,2013-04-27 15:39:00,
2013-04-27 11:44:00,71.2,24.1,29.29,ESE,112,3.6,10.3,17,0.00,,,0.00,WUHU216WMR100,2013-04-27 15:44:00,
2013-04-27 11:49:00,71.8,27.3,29.29,SE,137,3.9,7.2,19,0.00,,,0.00,WUHU216WMR100,2013-04-27 15:49:00,
2013-04-27 11:54:00,72.3,23.5,29.29,SSE,157,4.3,6.7,16,0.00,,,0.00,WUHU216WMR100,2013-04-27 15:54:00,
2013-04-27 11:59:00,73.0,24.1,29.29,ESE,112,2.5,6.5,16,0.00,,,0.00,WUHU216WMR100,2013-04-27 15:59:00,
2013-04-27 12:04:00,72.5,23.7,29.26,SE,135,4.7,6.3,16,0.00,,,0.00,WUHU216WMR100,2013-04-27 16:04:00,
2013-04-27 12:09:00,72.3,23.5,29.26,SSE,157,3.4,6.3,16,0.00,,,0.00,WUHU216WMR100,2013-04-27 16:09:00,
2013-04-27 12:14:00,73.2,24.3,29.26,SSE,157,4.5,7.6,16,0.00,,,0.00,WUHU216WMR100,2013-04-27 16:14:00,
2013-04-27 12:19:00,72.9,24.0,29.26,South,169,3.5,7.6,16,0.00,,,0.00,WUHU216WMR100,2013-04-27 16:19:00,
2013-04-27 12:24:00,73.0,24.1,29.26,SSW,202,3.1,6.0,16,0.00,,,0.00,WUHU216WMR100,2013-04-27 16:24:00,
2013-04-27 12:29:00,72.5,23.7,29.26,SSE,157,4.5,6.0,16,0.00,,,0.00,WUHU216WMR100,2013-04-27 16:29:00,
2013-04-27 12:34:00,72.9,24.0,29.26,ESE,112,3.4,4.9,16,0.00,,,0.00,WUHU216WMR100,2013-04-27 16:34:00,
2013-04-27 12:39:00,73.4,24.4,29.26,East,90,4.0,7.4,16,0.00,,,0.00,WUHU216WMR100,2013-04-27 16:39:00,
2013-04-27 12:44:00,75.2,24.3,29.26,South,180,2.0,7.4,15,0.00,,,0.00,WUHU216WMR100,2013-04-27 16:44:00,
2013-04-27 12:50:00,75.2,24.3,29.26,SSE,157,2.0,5.6,15,0.00,,,0.00,WUHU216WMR100,2013-04-27 16:50:00,
2013-04-27 12:55:00,74.3,25.1,29.26,WSW,247,4.0,5.8,16,0.00,,,0.00,WUHU216WMR100,2013-04-27 16:55:00,
2013-04-27 13:00:00,74.8,25.5,29.26,SSW,210,3.3,5.8,16,0.00,,,0.00,WUHU216WMR100,2013-04-27 17:00:00,
2013-04-27 13:05:00,74.5,25.3,29.26,South,180,6.3,8.5,16,0.00,,,0.00,WUHU216WMR100,2013-04-27 17:05:00,
2013-04-27 13:10:00,74.7,25.5,29.26,SSW,202,3.4,8.5,16,0.00,,,0.00,WUHU216WMR100,2013-04-27 17:10:00,
2013-04-27 13:15:00,75.4,24.5,29.26,SSW,202,3.6,6.3,15,0.00,,,0.00,WUHU216WMR100,2013-04-27 17:15:00,
2013-04-27 13:20:00,77.2,25.9,29.23,SSW,202,2.5,4.7,15,0.00,,,0.00,WUHU216WMR100,2013-04-27 17:20:00,
2013-04-27 13:25:00,77.0,25.7,29.23,SW,215,2.5,5.6,15,0.00,,,0.00,WUHU216WMR100,2013-04-27 17:25:00,
2013-04-27 13:30:00,76.8,25.6,29.23,South,171,4.2,7.6,15,0.00,,,0.00,WUHU216WMR100,2013-04-27 17:30:00,
2013-04-27 13:35:00,75.7,24.7,29.23,SSW,202,3.8,7.6,15,0.00,,,0.00,WUHU216WMR100,2013-04-27 17:35:00,
2013-04-27 13:40:00,75.7,24.7,29.23,SSE,157,3.6,5.8,15,0.00,,,0.00,WUHU216WMR100,2013-04-27 17:40:00,
2013-04-27 13:45:00,77.2,25.9,29.23,SW,225,2.9,5.6,15,0.00,,,0.00,WUHU216WMR100,2013-04-27 17:45:00,
2013-04-27 13:50:00,77.9,26.5,29.23,ESE,112,2.7,4.0,15,0.00,,,0.00,WUHU216WMR100,2013-04-27 17:50:00,
2013-04-27 13:55:00,77.0,25.7,29.23,South,180,4.0,7.6,15,0.00,,,0.00,WUHU216WMR100,2013-04-27 17:55:00,
2013-04-27 14:00:00,76.8,25.6,29.23,South,180,3.8,7.6,15,0.00,,,0.00,WUHU216WMR100,2013-04-27 18:00:00,
2013-04-27 14:05:00,78.1,26.6,29.23,WNW,285,2.8,6.3,15,0.00,,,0.00,WUHU216WMR100,2013-04-27 18:05:00,
2013-04-27 14:10:00,76.5,25.3,29.23,SSE,166,3.5,7.8,15,0.00,,,0.00,WUHU216WMR100,2013-04-27 18:10:00,
2013-04-27 14:15:00,76.6,25.4,29.23,South,175,4.6,8.5,15,0.00,,,0.00,WUHU216WMR100,2013-04-27 18:15:00,
2013-04-27 14:20:00,76.8,25.6,29.23,SSE,157,3.4,8.5,15,0.00,,,0.00,WUHU216WMR100,2013-04-27 18:20:00,
2013-04-27 14:25:00,77.2,25.9,29.23,SSE,157,4.5,6.3,15,0.00,,,0.00,WUHU216WMR100,2013-04-27 18:25:00,
2013-04-27 14:30:00,77.0,25.7,29.23,SSE,157,3.6,6.5,15,0.00,,,0.00,WUHU216WMR100,2013-04-27 18:30:00,
2013-04-27 14:35:00,77.2,25.9,29.21,SW,224,3.6,6.5,15,0.00,,,0.00,WUHU216WMR100,2013-04-27 18:35:00,
2013-04-27 14:40:00,76.5,25.3,29.21,South,189,6.1,8.7,15,0.00,,,0.00,WUHU216WMR100,2013-04-27 18:40:00,
2013-04-27 14:45:00,76.5,25.3,29.21,SSW,202,4.5,8.7,15,0.00,,,0.00,WUHU216WMR100,2013-04-27 18:45:00,
2013-04-27 14:50:00,77.9,26.5,29.21,SSW,193,3.2,7.4,15,0.00,,,0.00,WUHU216WMR100,2013-04-27 18:50:00,
2013-04-27 14:55:00,78.3,26.8,29.21,South,172,3.2,7.4,15,0.00,,,0.00,WUHU216WMR100,2013-04-27 18:55:00,
2013-04-27 15:00:00,77.9,26.5,29.21,SSW,202,3.6,6.3,15,0.00,,,0.00,WUHU216WMR100,2013-04-27 19:00:00,
2013-04-27 15:05:00,78.3,26.8,29.21,NE,45,3.1,6.3,15,0.00,,,0.00,WUHU216WMR100,2013-04-27 19:05:00,
2013-04-27 15:10:00,77.7,26.3,29.21,SSE,157,3.1,6.3,15,0.00,,,0.00,WUHU216WMR100,2013-04-27 19:10:00,
2013-04-27 15:15:00,78.4,26.9,29.21,SSW,202,2.0,4.7,15,0.00,,,0.00,WUHU216WMR100,2013-04-27 19:15:00,
2013-04-27 15:20:00,79.0,27.3,29.21,SE,125,4.3,7.8,15,0.00,,,0.00,WUHU216WMR100,2013-04-27 19:20:00,
2013-04-27 15:25:00,77.5,26.1,29.21,South,172,3.5,7.8,15,0.00,,,0.00,WUHU216WMR100,2013-04-27 19:25:00,
2013-04-27 15:30:00,78.3,26.8,29.21,ESE,112,2.5,7.6,15,0.00,,,0.00,WUHU216WMR100,2013-04-27 19:30:00,
2013-04-27 15:35:00,77.9,26.5,29.21,SSW,202,3.1,6.3,15,0.00,,,0.00,WUHU216WMR100,2013-04-27 19:35:00,
2013-04-27 15:40:00,78.6,27.0,29.21,SSW,202,3.8,6.5,15,0.00,,,0.00,WUHU216WMR100,2013-04-27 19:40:00,
2013-04-27 15:45:00,78.8,27.2,29.21,WSW,255,3.2,8.1,15,0.00,,,0.00,WUHU216WMR100,2013-04-27 19:45:00,
2013-04-27 15:51:00,78.3,26.8,29.21,SE,126,3.8,8.1,15,0.00,,,0.00,WUHU216WMR100,2013-04-27 19:51:00,
2013-04-27 15:56:00,77.9,26.5,29.21,SSE,157,3.1,6.0,15,0.00,,,0.00,WUHU216WMR100,2013-04-27 19:56:00,
2013-04-27 16:01:00,78.4,26.9,29.21,South,180,3.1,6.0,15,0.00,,,0.00,WUHU216WMR100,2013-04-27 20:01:00,
2013-04-27 16:06:00,77.5,26.1,29.21,WSW,247,4.5,6.5,15,0.00,,,0.00,WUHU216WMR100,2013-04-27 20:06:00,
2013-04-27 16:11:00,78.1,26.6,29.21,SW,218,3.0,6.5,15,0.00,,,0.00,WUHU216WMR100,2013-04-27 20:11:00,
2013-04-27 16:16:00,78.4,26.9,29.21,SSW,202,2.7,5.8,15,0.00,,,0.00,WUHU216WMR100,2013-04-27 20:16:00,
2013-04-27 16:21:00,78.3,26.8,29.18,SSE,157,3.6,4.9,15,0.00,,,0.00,WUHU216WMR100,2013-04-27 20:21:00,
2013-04-27 16:26:00,78.3,26.8,29.18,SW,214,3.6,5.6,15,0.00,,,0.00,WUHU216WMR100,2013-04-27 20:26:00,
2013-04-27 16:31:00,78.6,27.0,29.18,SSE,157,3.4,5.6,15,0.00,,,0.00,WUHU216WMR100,2013-04-27 20:31:00,
2013-04-27 16:36:00,79.0,27.3,29.18,ESE,112,2.7,4.9,15,0.00,,,0.00,WUHU216WMR100,2013-04-27 20:36:00,
2013-04-27 16:41:00,77.7,26.3,29.18,SSE,157,4.9,5.8,15,0.00,,,0.00,WUHU216WMR100,2013-04-27 20:41:00,
2013-04-27 16:46:00,78.1,26.6,29.18,East,98,3.4,6.3,15,0.00,,,0.00,WUHU216WMR100,2013-04-27 20:46:00,
2013-04-27 16:51:00,77.5,26.1,29.18,South,180,3.4,8.1,15,0.00,,,0.00,WUHU216WMR100,2013-04-27 20:51:00,
2013-04-27 16:56:00,78.6,27.0,29.18,South,182,1.7,8.1,15,0.00,,,0.00,WUHU216WMR100,2013-04-27 20:56:00,
2013-04-27 17:01:00,78.6,27.0,29.18,ESE,108,2.6,5.6,15,0.00,,,0.00,WUHU216WMR100,2013-04-27 21:01:00,
2013-04-27 17:06:00,79.0,27.3,29.18,SSE,157,2.7,4.7,15,0.00,,,0.00,WUHU216WMR100,2013-04-27 21:06:00,
2013-04-27 17:11:00,77.5,26.1,29.18,ESE,112,6.0,6.5,15,0.00,,,0.00,WUHU216WMR100,2013-04-27 21:11:00,
2013-04-27 17:16:00,77.0,25.7,29.18,ESE,102,3.9,6.5,15,0.00,,,0.00,WUHU216WMR100,2013-04-27 21:16:00,
2013-04-27 17:21:00,76.6,25.4,29.18,SE,140,4.7,7.8,15,0.00,,,0.00,WUHU216WMR100,2013-04-27 21:21:00,
2013-04-27 17:26:00,77.0,25.7,29.18,East,90,3.1,7.8,15,0.00,,,0.00,WUHU216WMR100,2013-04-27 21:26:00,
2013-04-27 17:31:00,76.6,25.4,29.18,SSE,157,2.9,5.6,15,0.00,,,0.00,WUHU216WMR100,2013-04-27 21:31:00,
2013-04-27 17:36:00,75.7,24.7,29.18,SSE,153,4.1,7.8,15,0.00,,,0.00,WUHU216WMR100,2013-04-27 21:36:00,
2013-04-27 17:41:00,76.1,25.0,29.18,SSE,157,2.9,7.8,15,0.00,,,0.00,WUHU216WMR100,2013-04-27 21:41:00,
2013-04-27 17:46:00,76.1,25.0,29.18,ESE,112,3.4,6.0,15,0.00,,,0.00,WUHU216WMR100,2013-04-27 21:46:00,
2013-04-27 17:51:00,75.9,24.9,29.18,ESE,109,3.7,7.2,15,0.00,,,0.00,WUHU216WMR100,2013-04-27 21:51:00,
2013-04-27 17:56:00,75.7,24.7,29.18,SSW,202,2.7,7.2,15,0.00,,,0.00,WUHU216WMR100,2013-04-27 21:56:00,
2013-04-27 18:01:00,75.4,24.5,29.18,ESE,112,5.8,7.4,15,0.00,,,0.00,WUHU216WMR100,2013-04-27 22:01:00,
2013-04-27 18:06:00,74.7,25.5,29.15,South,175,3.0,7.4,16,0.00,,,0.00,WUHU216WMR100,2013-04-27 22:06:00,
2013-04-27 18:11:00,74.7,25.5,29.15,SE,128,1.7,5.8,16,0.00,,,0.00,WUHU216WMR100,2013-04-27 22:11:00,
2013-04-27 18:16:00,74.7,25.5,29.15,SSW,202,2.1,4.9,16,0.00,,,0.00,WUHU216WMR100,2013-04-27 22:16:00,
2013-04-27 18:21:00,74.7,25.5,29.15,SSW,202,2.2,4.9,16,0.00,,,0.00,WUHU216WMR100,2013-04-27 22:21:00,
2013-04-27 18:26:00,74.7,25.5,29.15,SSE,157,3.4,4.7,16,0.00,,,0.00,WUHU216WMR100,2013-04-27 22:26:00,
2013-04-27 18:31:00,74.5,25.3,29.15,East,90,2.9,4.7,16,0.00,,,0.00,WUHU216WMR100,2013-04-27 22:31:00,
2013-04-27 18:36:00,73.9,24.8,29.15,East,90,3.1,6.3,16,0.00,,,0.00,WUHU216WMR100,2013-04-27 22:36:00,
2013-04-27 18:41:00,73.8,24.7,29.15,ENE,67,2.7,6.3,16,0.00,,,0.00,WUHU216WMR100,2013-04-27 22:41:00,
2013-04-27 18:46:00,73.6,24.6,29.15,SE,139,2.6,4.9,16,0.00,,,0.00,WUHU216WMR100,2013-04-27 22:46:00,
2013-04-27 18:51:00,72.9,24.0,29.15,ESE,112,2.5,3.6,16,0.00,,,0.00,WUHU216WMR100,2013-04-27 22:51:00,
2013-04-27 18:56:00,72.5,23.7,29.15,SSE,157,2.5,3.8,16,0.00,,,0.00,WUHU216WMR100,2013-04-27 22:56:00,
2013-04-27 19:01:00,72.1,23.4,29.15,SSE,157,2.5,3.8,16,0.00,,,0.00,WUHU216WMR100,2013-04-27 23:01:00,
2013-04-27 19:06:00,72.0,23.3,29.15,South,180,2.0,4.0,16,0.00,,,0.00,WUHU216WMR100,2013-04-27 23:06:00,
2013-04-27 19:11:00,71.6,23.0,29.15,SSE,157,2.5,4.0,16,0.00,,,0.00,WUHU216WMR100,2013-04-27 23:11:00,
2013-04-27 19:16:00,71.4,24.3,29.15,SSE,157,2.0,3.4,17,0.00,,,0.00,WUHU216WMR100,2013-04-27 23:16:00,
2013-04-27 19:21:00,70.9,23.9,29.15,SSE,157,1.1,2.9,17,0.00,,,0.00,WUHU216WMR100,2013-04-27 23:21:00,
2013-04-27 19:27:00,70.3,23.4,29.15,SSE,157,0.0,2.9,17,0.00,,,0.00,WUHU216WMR100,2013-04-27 23:27:00,
2013-04-27 19:32:00,70.0,23.1,29.15,SSE,157,1.1,2.2,17,0.00,,,0.00,WUHU216WMR100,2013-04-27 23:32:00,
2013-04-27 19:38:00,69.4,22.6,29.15,SSE,157,0.0,2.2,17,0.00,,,0.00,WUHU216WMR100,2013-04-27 23:38:00,
2013-04-27 19:43:00,68.9,22.2,29.15,SSE,157,0.0,1.3,17,0.00,,,0.00,WUHU216WMR100,2013-04-27 23:43:00,
2013-04-27 19:48:00,68.4,21.8,29.15,SSE,157,0.0,0.0,17,0.00,,,0.00,WUHU216WMR100,2013-04-27 23:48:00,
2013-04-27 19:53:00,67.8,21.3,29.15,SSE,157,0.0,0.0,17,0.00,,,0.00,WUHU216WMR100,2013-04-27 23:53:00,
2013-04-27 19:58:00,67.1,20.8,29.15,SSE,157,0.0,0.0,17,0.00,,,0.00,WUHU216WMR100,2013-04-27 23:58:00,
2013-04-27 20:03:00,66.7,20.4,29.15,WSW,247,1.0,2.5,17,0.00,,,0.00,WUHU216WMR100,2013-04-28 00:03:00,
2013-04-27 20:08:00,66.2,20.0,29.15,WSW,247,0.0,2.5,17,0.00,,,0.00,WUHU216WMR100,2013-04-28 00:08:00,
2013-04-27 20:13:00,66.2,20.0,29.15,SSW,202,1.3,2.9,17,0.00,,,0.00,WUHU216WMR100,2013-04-28 00:13:00,
2013-04-27 20:18:00,65.7,21.0,29.15,SSW,202,0.0,2.9,18,0.00,,,0.00,WUHU216WMR100,2013-04-28 00:18:00,
2013-04-27 20:23:00,65.3,20.6,29.15,South,180,0.9,2.5,18,0.00,,,0.00,WUHU216WMR100,2013-04-28 00:23:00,
2013-04-27 20:28:00,64.9,20.3,29.15,South,180,0.0,2.5,18,0.00,,,0.00,WUHU216WMR100,2013-04-28 00:28:00,
2013-04-27 20:33:00,64.0,23.2,29.15,WNW,292,0.0,1.6,21,0.00,,,0.00,WUHU216WMR100,2013-04-28 00:33:00,
2013-04-27 20:38:00,63.5,22.8,29.15,WNW,292,0.0,1.6,21,0.00,,,0.00,WUHU216WMR100,2013-04-28 00:38:00,
2013-04-27 20:43:00,63.0,22.4,29.15,WNW,292,0.9,1.6,21,0.00,,,0.00,WUHU216WMR100,2013-04-28 00:43:00,
2013-04-27 20:48:00,62.6,24.2,29.12,WNW,292,0.0,1.6,23,0.00,,,0.00,WUHU216WMR100,2013-04-28 00:48:00,
2013-04-27 20:53:00,62.4,25.0,29.12,WNW,292,0.0,0.0,24,0.00,,,0.00,WUHU216WMR100,2013-04-28 00:53:00,
2013-04-27 20:58:00,61.9,24.6,29.12,WNW,292,0.0,0.0,24,0.00,,,0.00,WUHU216WMR100,2013-04-28 00:58:00,
2013-04-27 21:03:00,61.3,24.1,29.12,WNW,292,0.0,0.0,24,0.00,,,0.00,WUHU216WMR100,2013-04-28 01:03:00,
2013-04-27 21:08:00,60.6,24.4,29.12,WNW,292,0.0,0.0,25,0.00,,,0.00,WUHU216WMR100,2013-04-28 01:08:00,
2013-04-27 21:13:00,60.1,24.0,29.12,WNW,292,0.0,0.0,25,0.00,,,0.00,WUHU216WMR100,2013-04-28 01:13:00,
2013-04-27 21:18:00,59.5,24.4,29.15,WNW,292,0.0,0.0,26,0.00,,,0.00,WUHU216WMR100,2013-04-28 01:18:00,
2013-04-27 21:23:00,59.2,25.0,29.15,WNW,292,0.0,0.0,27,0.00,,,0.00,WUHU216WMR100,2013-04-28 01:23:00,
2013-04-27 21:28:00,58.5,25.3,29.15,WNW,292,0.0,0.0,28,0.00,,,0.00,WUHU216WMR100,2013-04-28 01:28:00,
2013-04-27 21:34:00,58.1,25.8,29.12,WNW,292,0.0,0.0,29,0.00,,,0.00,WUHU216WMR100,2013-04-28 01:34:00,
2013-04-27 21:39:00,57.7,27.8,29.12,WNW,292,0.0,0.0,32,0.00,,,0.00,WUHU216WMR100,2013-04-28 01:39:00,
2013-04-27 21:44:00,57.4,28.3,29.12,WNW,292,0.0,0.0,33,0.00,,,0.00,WUHU216WMR100,2013-04-28 01:44:00,
2013-04-27 21:49:00,56.8,29.2,29.12,WNW,292,0.0,0.0,35,0.00,,,0.00,WUHU216WMR100,2013-04-28 01:49:00,
2013-04-27 21:55:00,56.3,28.8,29.12,WNW,292,0.0,0.0,35,0.00,,,0.00,WUHU216WMR100,2013-04-28 01:55:00,
2013-04-27 22:00:00,56.1,28.6,29.12,WNW,292,0.0,0.0,35,0.00,,,0.00,WUHU216WMR100,2013-04-28 02:00:00,
2013-04-27 22:05:00,55.8,29.0,29.15,WNW,292,0.0,0.0,36,0.00,,,0.00,WUHU216WMR100,2013-04-28 02:05:00,
2013-04-27 22:10:00,55.6,29.5,29.15,WNW,292,0.0,0.0,37,0.00,,,0.00,WUHU216WMR100,2013-04-28 02:10:00,
2013-04-27 22:15:00,55.2,29.8,29.15,WNW,292,0.0,0.0,38,0.00,,,0.00,WUHU216WMR100,2013-04-28 02:15:00,
2013-04-27 22:20:00,54.9,30.2,29.15,WNW,292,0.0,0.0,39,0.00,,,0.00,WUHU216WMR100,2013-04-28 02:20:00,
2013-04-27 22:25:00,54.7,30.7,29.15,WNW,292,0.0,0.0,40,0.00,,,0.00,WUHU216WMR100,2013-04-28 02:25:00,
2013-04-27 22:30:00,54.5,31.1,29.15,WNW,292,0.0,0.0,41,0.00,,,0.00,WUHU216WMR100,2013-04-28 02:30:00,
2013-04-27 22:35:00,54.3,32.7,29.15,WNW,292,0.0,0.0,44,0.00,,,0.00,WUHU216WMR100,2013-04-28 02:35:00,
2013-04-27 22:40:00,54.0,31.9,29.15,WNW,292,0.0,0.0,43,0.00,,,0.00,WUHU216WMR100,2013-04-28 02:40:00,
2013-04-27 22:45:00,53.8,32.8,29.15,WNW,292,0.0,0.0,45,0.00,,,0.00,WUHU216WMR100,2013-04-28 02:45:00,
2013-04-27 22:50:00,53.4,33.0,29.12,WNW,292,0.0,0.0,46,0.00,,,0.00,WUHU216WMR100,2013-04-28 02:50:00,
2013-04-27 22:55:00,53.4,33.0,29.12,WNW,292,0.0,0.0,46,0.00,,,0.00,WUHU216WMR100,2013-04-28 02:55:00,
2013-04-27 23:00:00,53.2,33.4,29.12,WNW,292,0.0,0.0,47,0.00,,,0.00,WUHU216WMR100,2013-04-28 03:00:00,
2013-04-27 23:05:00,53.1,33.3,29.12,WNW,292,0.0,0.0,47,0.00,,,0.00,WUHU216WMR100,2013-04-28 03:05:00,
2013-04-27 23:10:00,52.9,33.1,29.12,WNW,292,0.0,0.0,47,0.00,,,0.00,WUHU216WMR100,2013-04-28 03:10:00,
2013-04-27 23:15:00,52.5,32.8,29.12,WNW,292,0.0,0.0,47,0.00,,,0.00,WUHU216WMR100,2013-04-28 03:15:00,
2013-04-27 23:20:00,52.3,33.1,29.12,WNW,292,0.0,0.0,48,0.00,,,0.00,WUHU216WMR100,2013-04-28 03:20:00,
2013-04-27 23:25:00,52.3,33.7,29.12,WNW,292,0.0,0.0,49,0.00,,,0.00,WUHU216WMR100,2013-04-28 03:25:00,
2013-04-27 23:30:00,52.3,34.7,29.12,WSW,247,1.6,3.4,51,0.00,,,0.00,WUHU216WMR100,2013-04-28 03:30:00,
2013-04-27 23:35:00,52.2,35.6,29.12,West,265,2.0,3.4,53,0.00,,,0.00,WUHU216WMR100,2013-04-28 03:35:00,
2013-04-27 23:41:00,51.8,35.2,29.12,NNW,337,0.9,2.7,53,0.00,,,0.00,WUHU216WMR100,2013-04-28 03:41:00,
2013-04-27 23:46:00,51.6,35.5,29.12,ENE,67,2.2,2.5,54,0.00,,,0.00,WUHU216WMR100,2013-04-28 03:46:00,
2013-04-27 23:51:00,52.2,37.0,29.12,ENE,67,2.2,2.7,56,0.00,,,0.00,WUHU216WMR100,2013-04-28 03:51:00,
2013-04-27 23:56:00,52.3,36.7,29.12,ENE,67,1.6,2.9,55,0.00,,,0.00,WUHU216WMR100,2013-04-28 03:56:00,